Location: Newark
(45.2500°N, 7.5833°E)
Time: 20:59:10
(UTC+00:00)

SR - Pass Details

Date: 02 February 2020
Orbit: 575 x 880 km, 66.7° (Epoch: 26 February)

Event Time Altitude Azimuth Distance (km) Brightness Sun altitude
Exits shadow 03:00:50 19° 60° (ENE) 1,784 ? -40.2°
Drops below altitude 10° 03:03:20 10° 86° (E) 2,290 ? -39.8°
Sets 03:06:10 0° 103° (ESE) 3,152 ? -39.3°
